STARLINK-30603, 58080

Orbit data source: Space-Track

STARLINK-30603, 58080 is a payload satellite owned by SpaceX/Seattle (US) in LEO that was launched on Wed, 18 Oct 2023 UTC via an FALCON 9 launch vehicle from the Air Force Eastern Test Range (AFETR). Payload-class satellites include a variety of spacecraft equipped with specific instruments for various scientific and technological missions. These include communications satellites like Starlink; space stations such as the ISS; scientific satellites like the Hubble; Earth observation satellites from companies like Planet Labs, Umbra, and HawkEye 360; GPS; miniature CubeSats for education and research; and military/defense satellites.

Loading next visibility...
Identifier
58080, 2023-160F
Orbit
LEO
Country
Flag of USUS
Related business
Manufacturer
SpaceX/Seattle
Mission
Operational Commercial Communications
Bus & Motor
STARLINK V2M, Unknown motor
Mass
730 kg wet, ~700 kg dry
Launch date (UTC)
2023-10-18 (3 years ago)
Launch vehicle
FALCON 9
Launch site
Air Force Eastern Test Range (AFETR)
Object type
Payload
Rocket body
Debris
Shape & HBR
Box + 2 Pan, 17.7 m
Radar Cross Section
33.884 m², Large (>1 m²)

Expand to show TLE details & history
Last TLE update: 2 days ago

TLE from 2 days ago
0 STARLINK-30603
1 58080U 23160F   26171.39887671  .00001170  00000-0  52038-4 0  9990
2 58080  43.0023 217.8619 0001478 256.2641 103.8046 15.27580193148652
Epoch: 2026-06-20T09:34Z
TLE epoch observation values (Epoch: 2026-06-20T09:34:22.947Z)
Latitude
-0.00004°
Longitude
165.65218°
Altitude
483.066 km
Speed
7.626 km/s
True Right ascension
14h 31m 26s
True Declination
0° 00' 00"
Sunlit
Object was in full shadow at epoch
Visualization orbit readout
Latitude
Unknown
Longitude
Unknown
Altitude
Unknown
Speed
Unknown
Apparent Right ascension
Unknown
Apparent Declination
Unknown
Sunlit
N/A
Visualization observer readout
Local Sidereal Time
21:29:33
Azimuth
Unknown
Elevation
Unknown
Doppler factor
Unknown
Orbital elements
Apogee altitude
486.008 km
Perigee altitude
483.979 km
Semi-major axis
6,863.13 km
Eccentricity
0.00015
Inclination
43.0023°
RAAN
217.8619°
Arg. of periapsis
256.2641°
True anomaly
103.82105°
Mean anomaly
103.8046°
Eccentric anomaly
103.81282°
Mean motion
3.81733 °/min
Orbital period
94.31 mins
BSTAR
0.000052038
Loading maneuver chart data...
Computing Atmospheric mass density...
Loading historical data...
Loading historical data...
Loading historical data...
Loading historical data...
Loading historical data...
Loading historical data...
Loading historical data...

Documentation

Showing up to 5 results
|